[[{"header":{"parameterUnit":"m.s-1","parameterCategory":2,"la1":30.2991,"la2":30.254,"lo1":-89.0895,"lo2":-89.0444,"dy":0.0017,"dx":0.0017,"nx":28,"ny":28,"refTime":"2024-12-12T09:00:00:Z","depth":"0","parameterNumber":2,"parameterNumberName":"U-component_of_CURRENTS"},"data":[0,0,0,0,0,0,0,0,0,0,0,0,0,0,0,0,0,0,0,0,0,0,0,0,0,0,0,0,0,0,0,0,0,0,0,0,0,0,0,0,0,0,0,0,0,0,0,0,0,0,0,0,0,0,0,0,0,0,0.3219,0.322,0,0.3277,0.3277,0.3277,0.3272,0.3271,0.3271,0.327,0.3264,0.3265,0.3265,0,0,0,0,0,0,0,0,0,0,0,0,0,0.3123,0.3124,0.3219,0.322,0.3221,0.3277,0.3277,0.3278,0.3272,0.3271,0.3271,0.327,0.3264,0.3265,0.3265,0,0,0,0,0,0,0,0,0,0,0,0,0,0.3168,0.3125,0.3219,0.3228,0.3229,0.3277,0.3277,0.3278,0.3272,0.3271,0.327,0.327,0.3264,0.3265,0.3265,0.3285,0,0,0.3267,0.3267,0,0,0,0,0,0,0,0,0.3165,0.3171,0.3225,0.3227,0.3229,0.327,0.3242,0.3278,0.3272,0.3252,0.327,0.3269,0.3263,0.3264,0.3272,0.3285,0.3285,0.3267,0.3267,0.3267,0.3268,0,0,0,0,0,0,0,0.3162,0.3168,0.3238,0.3227,0.3229,0.3236,0.3241,0.3248,0.3257,0.3254,0.3254,0.3267,0.3263,0.3272,0.3272,0.3284,0.3267,0.3267,0.3268,0.3268,0.3341,0.3343,0,0,0,0,0,0,0.3163,0.3165,0.3236,0.324,0.3199,0.3238,0.3244,0.3254,0.3259,0.326,0.3268,0.3267,0.3271,0.3271,0.3271,0.3323,0.3267,0.3268,0.3268,0.334,0.3342,0.3344,0,0,0,0,0,0,0.316,0.3168,0.3234,0.3207,0.3216,0.3241,0.3253,0.3256,0.327,0.3271,0.327,0.328,0.327,0.3271,0.3289,0.3322,0.3268,0.3269,0.3338,0.334,0.3343,0.3409,0,0,0,0,0,0,0.3157,0.3167,0.3174,0.3207,0.3218,0.3271,0.3255,0.3258,0.3281,0.328,0.3281,0.328,0.327,0.3289,0.329,0.3322,0.3269,0.3336,0.3339,0.3342,0.3405,0.3413,0.3421,0,0,0,0,0,0.3153,0.3167,0.3174,0.3182,0.3227,0.3273,0.3279,0.3291,0.3283,0.3298,0.3298,0.328,0.3309,0.3291,0.3292,0.3324,0.3334,0.3338,0.3342,0.3401,0.3412,0.3421,0,0,0,0,0,0,0.3125,0.3169,0.3177,0.3201,0.3239,0.3273,0.329,0.3299,0.3313,0.3308,0.3298,0.3298,0.3328,0.3318,0.3298,0.3355,0.332,0.3324,0.3365,0.3375,0.3383,0.3377,0.327,0,0,0,0,0,0.3125,0.3148,0.3192,0.3213,0.3233,0.3263,0.3282,0.3296,0.3315,0.332,0.3321,0.3327,0.3345,0.3352,0.3361,0.3391,0.34,0.3414,0.3422,0.3429,0.3426,0.3479,0.3492,0.3356,0.3356,0.3355,0,0,0.3118,0.3148,0.3159,0.3209,0.3236,0.3271,0.3272,0.331,0.3336,0.3318,0.3345,0.3354,0.336,0.3395,0.3407,0.3389,0.3476,0.3433,0.3439,0.3432,0.3484,0.3497,0.3509,0.3358,0.3358,0.3357,0,0,0.3123,0.3147,0.3169,0.3204,0.3256,0.3282,0.3297,0.3338,0.3354,0.3388,0.3386,0.3414,0.3432,0.345,0.346,0.3519,0.3517,0.3526,0.3563,0.3615,0.3626,0.3637,0.3681,0.3695,0.353,0.353,0.3531,0,0.3111,0.3148,0.3183,0.3217,0.325,0.3288,0.3323,0.3352,0.3392,0.3416,0.3401,0.3459,0.3459,0.3518,0.3536,0.3537,0.3564,0.3525,0.3626,0.3636,0.3645,0.3688,0.3702,0.3534,0.3534,0.3533,0.3533,0,0.3138,0.3166,0.3187,0.3242,0.3281,0.3321,0.3372,0.3408,0.3431,0.346,0.3518,0.3531,0.3564,0.3579,0.3572,0.3648,0.3645,0.3631,0.36,0.3663,0.3704,0.3718,0.3539,0.3538,0.3537,0.3536,0,0,0.3103,0.3189,0.3192,0.322,0.33,0.333,0.3393,0.3463,0.3503,0.3541,0.3601,0.3636,0.3648,0.366,0.367,0.3711,0.3802,0.3701,0.3702,0.3743,0.3924,0.3878,0.3888,0.3812,0.3814,0.3816,0.3932,0,0.3112,0.3171,0.322,0.3273,0.3307,0.3372,0.343,0.3495,0.3546,0.361,0.3653,0.3705,0.3681,0.3708,0.3749,0.3794,0.3839,0.3772,0.3858,0.386,0.381,0.3902,0.3806,0.3897,0.3945,0.3947,0.3949,0,0.3113,0.3157,0.3211,0.3295,0.3318,0.3356,0.3456,0.351,0.3616,0.3665,0.373,0.3766,0.3846,0.3809,0.3915,0.3878,0.3903,0.3927,0.3932,0.387,0.3839,0.3839,0.3919,0.3864,0.3969,0.3968,0.3966,0,0.3062,0.3143,0.3186,0.3214,0.3318,0.3356,0.3413,0.3517,0.357,0.3697,0.3753,0.3851,0.3904,0.3961,0.4007,0.3976,0.4118,0.4082,0.4064,0.4061,0.3983,0.3969,0.4012,0.4153,0.4152,0.4152,0.4152,0,0.3046,0.3072,0.3159,0.318,0.3229,0.3316,0.3377,0.3461,0.358,0.3647,0.3762,0.3835,0.3944,0.4031,0.4058,0.4113,0.4164,0.409,0.4096,0.4004,0.3991,0.3939,0.3906,0.4156,0.4155,0.4154,0.4154,0,0.2969,0.3037,0.3072,0.3172,0.32,0.3223,0.3332,0.3384,0.3514,0.361,0.3659,0.3846,0.3973,0.4066,0.4183,0.4172,0.4136,0.4231,0.4113,0.4103,0.3998,0.3972,0.3854,0.3721,0.4234,0.4234,0.4233,0,0.2933,0.2947,0.3027,0.3046,0.3084,0.3136,0.3187,0.3326,0.3393,0.36,0.3651,0.3828,0.3932,0.411,0.4169,0.4247,0.4121,0.4169,0.4077,0.3999,0.3977,0.3808,0.3692,0.4015,0.4013,0.4011,0.4009,0,0.2849,0.2877,0.2909,0.2947,0.2986,0.3022,0.3106,0.315,0.3324,0.3424,0.3575,0.3681,0.3906,0.3977,0.4105,0.4128,0.3995,0.4133,0.4094,0.3845,0.3625,0.3498,0.3931,0.3995,0.3996,0.3997,0.3998,0.3999,0.2765,0.276,0.2804,0.2827,0.2868,0.2889,0.288,0.2995,0.3071,0.32,0.3402,0.3527,0.3777,0.3958,0.3959,0.3959,0.3882,0.3875,0.3866,0.3714,0.3524,0.3916,0.3952,0.3953,0.3954,0.3955,0.3956,0,0.2649,0.2667,0.2688,0.2704,0.269,0.2755,0.2812,0.2794,0.2827,0.3025,0.3139,0.3392,0.3532,0.3709,0.3858,0.3749,0.3544,0.3652,0.3418,0.3325,0.3742,0.3671,0.3596,0.3596,0.3596,0.3596,0.3596,0.3596,0.2589,0.2565,0.2579,0.2514,0.2524,0.246,0.2452,0.2466,0.2572,0.2694,0.2846,0.3035,0.3465,0.3764,0.3766,0.3659,0.3358,0.322,0.3156,0.3519,0.3539,0.3557,0.3483,0.3371,0.337,0.2603,0.2598,0.2594]},{"header":{"parameterUnit":"m.s-1","parameterCategory":2,"la1":30.2991,"la2":30.254,"lo1":-89.0895,"lo2":-89.0444,"dy":0.0017,"dx":0.0017,"nx":28,"ny":28,"refTime":"2024-12-12T09:00:00:Z","depth":"0","parameterNumber":3,"parameterNumberName":"V-component_of_CURRENTS"},"data":[0,0,0,0,0,0,0,0,0,0,0,0,0,0,0,0,0,0,0,0,0,0,0,0,0,0,0,0,0,0,0,0,0,0,0,0,0,0,0,0,0,0,0,0,0,0,0,0,0,0,0,0,0,0,0,0,0,0,-0.0298,-0.0299,0,-0.0413,-0.0414,-0.0416,-0.048,-0.048,-0.048,-0.048,-0.0601,-0.0604,-0.0607,0,0,0,0,0,0,0,0,0,0,0,0,0,-0.0222,-0.0223,-0.0298,-0.0299,-0.0301,-0.0412,-0.0414,-0.0416,-0.048,-0.048,-0.048,-0.048,-0.06,-0.0604,-0.0608,0,0,0,0,0,0,0,0,0,0,0,0,0,-0.0289,-0.0223,-0.0298,-0.0344,-0.035,-0.0412,-0.0414,-0.0416,-0.048,-0.048,-0.048,-0.048,-0.0599,-0.0603,-0.0608,-0.0638,0,0,-0.0623,-0.0625,0,0,0,0,0,0,0,0,-0.0285,-0.0292,-0.0336,-0.0341,-0.0347,-0.043,-0.0431,-0.049,-0.048,-0.0433,-0.048,-0.048,-0.0543,-0.0552,-0.0577,-0.0643,-0.0648,-0.0623,-0.0626,-0.0628,-0.063,0,0,0,0,0,0,0,-0.0281,-0.0288,-0.0346,-0.0338,-0.0344,-0.0389,-0.0398,-0.0443,-0.0488,-0.0437,-0.0442,-0.0451,-0.0546,-0.0572,-0.058,-0.065,-0.0623,-0.0627,-0.063,-0.0632,-0.0738,-0.0738,0,0,0,0,0,0,-0.0257,-0.0283,-0.0342,-0.0349,-0.0313,-0.039,-0.04,-0.0405,-0.0488,-0.05,-0.0451,-0.0453,-0.0564,-0.0575,-0.0585,-0.0601,-0.0628,-0.0633,-0.0635,-0.0738,-0.0738,-0.0738,0,0,0,0,0,0,-0.0255,-0.0261,-0.0337,-0.0317,-0.033,-0.039,-0.0396,-0.0408,-0.0428,-0.0498,-0.051,-0.0458,-0.0564,-0.0578,-0.0611,-0.0607,-0.0635,-0.0639,-0.0738,-0.0738,-0.0738,-0.0648,0,0,0,0,0,0,-0.0252,-0.026,-0.0257,-0.0315,-0.033,-0.0359,-0.0396,-0.041,-0.0432,-0.0437,-0.0508,-0.052,-0.0565,-0.0603,-0.0616,-0.0614,-0.0643,-0.0738,-0.0738,-0.0738,-0.0651,-0.0645,-0.0639,0,0,0,0,0,-0.0249,-0.0241,-0.0256,-0.0263,-0.0323,-0.0358,-0.037,-0.0416,-0.0432,-0.0435,-0.048,-0.0517,-0.0612,-0.0607,-0.0621,-0.0621,-0.0738,-0.0738,-0.0738,-0.0653,-0.0646,-0.0639,0,0,0,0,0,0,-0.0206,-0.0249,-0.0266,-0.0271,-0.0304,-0.0368,-0.0376,-0.0407,-0.0447,-0.0449,-0.0514,-0.0529,-0.056,-0.0601,-0.0595,-0.0652,-0.0682,-0.0685,-0.0613,-0.0607,-0.0601,-0.057,-0.0647,0,0,0,0,0,-0.0194,-0.0199,-0.0246,-0.0248,-0.0261,-0.0316,-0.0336,-0.0365,-0.0408,-0.0426,-0.0476,-0.0528,-0.0574,-0.0595,-0.0644,-0.067,-0.0698,-0.0681,-0.0675,-0.067,-0.0655,-0.0698,-0.0694,-0.0737,-0.0737,-0.0737,0,0,-0.0179,-0.0201,-0.0205,-0.0239,-0.0271,-0.0278,-0.0328,-0.0349,-0.0357,-0.0433,-0.0456,-0.0511,-0.0577,-0.0608,-0.0626,-0.0639,-0.067,-0.067,-0.0665,-0.0653,-0.0698,-0.0693,-0.0689,-0.0737,-0.0737,-0.0737,0,0,-0.0145,-0.0168,-0.0158,-0.018,-0.0214,-0.0247,-0.0245,-0.0301,-0.0325,-0.0355,-0.0412,-0.0453,-0.0526,-0.0568,-0.06,-0.059,-0.0639,-0.0614,-0.0557,-0.0599,-0.0595,-0.0592,-0.0602,-0.0601,-0.0608,-0.0608,-0.0608,0,-0.0122,-0.0119,-0.0161,-0.0156,-0.0164,-0.0223,-0.0211,-0.0246,-0.0305,-0.0317,-0.0347,-0.0447,-0.0505,-0.0539,-0.0539,-0.0576,-0.0598,-0.0575,-0.0589,-0.0587,-0.0585,-0.0597,-0.0597,-0.0604,-0.0604,-0.0605,-0.0605,0,-0.0084,-0.0081,-0.0075,-0.0086,-0.0099,-0.01,-0.0144,-0.0161,-0.0198,-0.0238,-0.028,-0.0361,-0.0415,-0.0449,-0.0493,-0.0514,-0.0532,-0.0576,-0.0599,-0.0575,-0.0589,-0.0591,-0.0598,-0.0599,-0.06,-0.0601,0,0,-0.0029,-0.0044,-0.0041,-0.0026,-0.0059,-0.0059,-0.0067,-0.0089,-0.0082,-0.0156,-0.0156,-0.0251,-0.0297,-0.0335,-0.0402,-0.0443,-0.0456,-0.0498,-0.0502,-0.0493,-0.0523,-0.0521,-0.0523,-0.0506,-0.0506,-0.0506,-0.0529,0,0.0018,0.0049,0.0024,0.0063,0.008,0.0036,0.0039,0.0011,-0.0027,-0.0044,-0.0133,-0.0168,-0.0254,-0.0275,-0.033,-0.0424,-0.0459,-0.0444,-0.056,-0.0563,-0.0553,-0.0525,-0.0511,-0.053,-0.0531,-0.0531,-0.0531,0,0.007,0.0085,0.0127,0.015,0.0155,0.0166,0.0176,0.0169,0.0122,0.0089,0.0035,-0.0034,-0.0099,-0.0182,-0.0314,-0.03,-0.0398,-0.0476,-0.048,-0.0509,-0.0564,-0.0561,-0.0533,-0.0727,-0.0534,-0.0534,-0.0534,0,0.0142,0.0166,0.0207,0.021,0.0217,0.0235,0.0237,0.0211,0.0228,0.0175,0.0183,0.0079,0.005,-0.0096,-0.0252,-0.0285,-0.0391,-0.046,-0.0547,-0.0547,-0.0572,-0.0574,-0.0734,-0.0552,-0.0552,-0.0552,-0.0552,0,0.0204,0.0243,0.0245,0.027,0.0332,0.031,0.0363,0.0344,0.0343,0.0384,0.0261,0.0283,0.0068,-0.0018,-0.0194,-0.0351,-0.0346,-0.0518,-0.0553,-0.0539,-0.0538,-0.0739,-0.0869,-0.0553,-0.0553,-0.0553,-0.0553,0,0.0276,0.0271,0.0329,0.0352,0.0366,0.041,0.0453,0.0496,0.0472,0.0526,0.0522,0.0451,0.0341,0.0133,-0.0077,-0.0247,-0.0535,-0.0485,-0.0434,-0.0462,-0.0736,-0.086,-0.1067,-0.115,-0.0583,-0.0583,-0.0583,0,0.0315,0.035,0.0398,0.044,0.0453,0.0506,0.0554,0.0555,0.0613,0.0643,0.0695,0.062,0.0594,0.0301,-0.0014,-0.0297,-0.0516,-0.0484,-0.056,-0.0731,-0.0897,-0.1,-0.1062,-0.0553,-0.0553,-0.0552,-0.0552,0,0.0396,0.0408,0.0451,0.0536,0.0596,0.0665,0.0737,0.0809,0.0832,0.0889,0.0974,0.0964,0.0698,0.0444,0.0049,-0.018,-0.0632,-0.049,-0.0697,-0.0901,-0.0997,-0.1097,-0.054,-0.0551,-0.0551,-0.0551,-0.0551,-0.0551,0.0459,0.0502,0.0558,0.0643,0.0716,0.0822,0.0897,0.0997,0.1113,0.122,0.1203,0.1227,0.0836,0.0312,-0.0015,-0.06,-0.0634,-0.0789,-0.0925,-0.1011,-0.1103,-0.052,-0.0558,-0.0558,-0.0559,-0.0559,-0.0559,0,0.0535,0.0581,0.0665,0.0761,0.0858,0.0878,0.1023,0.111,0.127,0.1385,0.1455,0.1303,0.0801,0.0264,-0.0503,-0.0939,-0.1129,-0.1197,-0.136,-0.1402,-0.0901,-0.0911,-0.0993,-0.0992,-0.0992,-0.0992,-0.0992,-0.0992,0.0575,0.0662,0.0699,0.0862,0.0937,0.1067,0.1152,0.1296,0.1412,0.1557,0.1601,0.1604,0.1234,-0.0173,-0.1147,-0.1397,-0.1721,-0.1806,-0.196,-0.1645,-0.1618,-0.1592,-0.1632,-0.1863,-0.1864,-0.2392,-0.2397,-0.2402]}],[{"header":{"parameterUnit":"m.s-1","parameterCategory":2,"la1":30.2991,"la2":30.254,"lo1":-89.0895,"lo2":-89.0444,"dy":0.0017,"dx":0.0017,"nx":28,"ny":28,"refTime":"2024-12-12T09:00:00:Z","depth":"2","parameterNumber":2,"parameterNumberName":"U-component_of_CURRENTS"},"data":[0,0,0,0,0,0,0,0,0,0,0,0,0,0,0,0,0,0,0,0,0,0,0,0,0,0,0,0,0,0,0,0,0,0,0,0,0,0,0,0,0,0,0,0,0,0,0,0,0,0,0,0,0,0,0,0,0,0,0.2939,0.294,0,0.3001,0.3002,0.3003,0.3027,0.3027,0.3027,0.3027,0.3061,0.3062,0.3063,0,0,0,0,0,0,0,0,0,0,0,0,0,0.2863,0.2865,0.2939,0.294,0.2941,0.3001,0.3002,0.3003,0.3027,0.3027,0.3027,0.3027,0.306,0.3062,0.3063,0,0,0,0,0,0,0,0,0,0,0,0,0,0.2908,0.2865,0.2939,0.2961,0.2963,0.3001,0.3002,0.3003,0.3027,0.3027,0.3027,0.3027,0.306,0.3062,0.3063,0.3076,0,0,0.3068,0.3068,0,0,0,0,0,0,0,0,0.2905,0.291,0.2957,0.2959,0.2962,0.3007,0.2988,0.3026,0.3027,0.3003,0.3027,0.3027,0.304,0.3044,0.3056,0.3078,0.3079,0.3068,0.3069,0.3069,0.307,0,0,0,0,0,0,0,0.2902,0.2908,0.2963,0.2958,0.2961,0.2975,0.2981,0.2995,0.3021,0.3005,0.3007,0.3014,0.3042,0.3054,0.3056,0.308,0.3068,0.3069,0.307,0.3071,0.3154,0.3155,0,0,0,0,0,0,0.2894,0.2905,0.2961,0.2965,0.2933,0.2976,0.2983,0.2992,0.3022,0.3026,0.3015,0.3015,0.3052,0.3055,0.3058,0.3124,0.3069,0.3071,0.3072,0.3152,0.3154,0.3155,0,0,0,0,0,0,0.2893,0.2899,0.2959,0.2937,0.2945,0.2978,0.2988,0.2994,0.3019,0.3029,0.3033,0.3036,0.3052,0.3056,0.3098,0.3124,0.3071,0.3073,0.3151,0.3153,0.3155,0.3226,0,0,0,0,0,0,0.289,0.2898,0.291,0.2936,0.2946,0.2993,0.2989,0.2995,0.3024,0.3026,0.3049,0.3051,0.3052,0.3096,0.3099,0.3125,0.3074,0.3149,0.3152,0.3154,0.3222,0.323,0.3237,0,0,0,0,0,0.2887,0.2902,0.2911,0.2918,0.296,0.2994,0.3001,0.3022,0.3025,0.3043,0.3067,0.3051,0.3113,0.3099,0.3102,0.3129,0.3148,0.3151,0.3154,0.3218,0.3228,0.3237,0,0,0,0,0,0,0.2871,0.2907,0.2917,0.2941,0.297,0.2998,0.302,0.3031,0.3065,0.3074,0.3076,0.3081,0.3126,0.3118,0.3102,0.3159,0.3124,0.3128,0.3172,0.3181,0.3188,0.3189,0.3075,0,0,0,0,0,0.2875,0.2899,0.293,0.2952,0.2969,0.2997,0.3016,0.3034,0.3063,0.3078,0.3092,0.3111,0.3139,0.3153,0.3172,0.3206,0.3209,0.3222,0.323,0.3236,0.3239,0.3284,0.3296,0.3165,0.3165,0.3165,0,0,0.2874,0.2897,0.2911,0.2951,0.2977,0.3009,0.3009,0.3048,0.3078,0.3076,0.3123,0.3141,0.3156,0.32,0.3217,0.3198,0.3276,0.324,0.3246,0.3244,0.3288,0.3301,0.3312,0.3167,0.3166,0.3166,0,0,0.2881,0.2909,0.2931,0.2961,0.3006,0.3029,0.3043,0.3081,0.3107,0.3154,0.3164,0.3202,0.3232,0.3256,0.327,0.3328,0.3317,0.3328,0.3367,0.3411,0.3422,0.3432,0.3455,0.3467,0.3329,0.3329,0.3329,0,0.288,0.2913,0.2943,0.2973,0.3003,0.3039,0.3071,0.3105,0.3152,0.3179,0.3176,0.3249,0.326,0.3323,0.3345,0.3346,0.3363,0.3333,0.3422,0.3432,0.3441,0.3462,0.3474,0.3333,0.3332,0.3332,0.3332,0,0.2904,0.2935,0.2954,0.3006,0.3041,0.308,0.3127,0.3165,0.3197,0.3228,0.3297,0.3326,0.3367,0.3378,0.3382,0.3454,0.3443,0.343,0.3401,0.3459,0.3477,0.3488,0.3338,0.3337,0.3336,0.3335,0,0,0.2881,0.2957,0.2963,0.2991,0.3065,0.309,0.3155,0.3219,0.3265,0.3311,0.3372,0.3426,0.3446,0.3463,0.3478,0.3514,0.3595,0.3504,0.3505,0.3529,0.3689,0.3656,0.3664,0.3607,0.3609,0.3611,0.3676,0,0.2891,0.2944,0.2988,0.3043,0.3073,0.3134,0.3194,0.3257,0.3311,0.3378,0.3427,0.3496,0.3479,0.352,0.3553,0.3592,0.3627,0.3577,0.3626,0.3627,0.3594,0.3677,0.3407,0.3441,0.3687,0.3689,0.369,0,0.2886,0.2931,0.2983,0.3064,0.3087,0.3131,0.3227,0.3287,0.3391,0.3436,0.3506,0.3557,0.3638,0.3613,0.3697,0.367,0.3686,0.3701,0.3704,0.3655,0.3615,0.3422,0.3451,0.3708,0.3706,0.3705,0.3704,0,0.2834,0.2915,0.2957,0.2986,0.3091,0.3133,0.3198,0.3302,0.336,0.3487,0.354,0.3637,0.3695,0.374,0.3778,0.3756,0.3856,0.3825,0.3804,0.38,0.3568,0.3542,0.3882,0.3882,0.3882,0.3882,0.3882,0,0.281,0.2844,0.2936,0.2962,0.302,0.311,0.3185,0.3264,0.3386,0.3449,0.3569,0.3631,0.3734,0.3803,0.3818,0.3851,0.389,0.383,0.3829,0.3586,0.3561,0.3782,0.377,0.3884,0.3884,0.3883,0.3883,0,0.2736,0.2801,0.2848,0.296,0.2991,0.3033,0.3158,0.3213,0.3346,0.3432,0.3487,0.365,0.3754,0.3835,0.392,0.3898,0.3938,0.3931,0.3637,0.3601,0.3838,0.3828,0.3926,0.3925,0.3925,0.3925,0.3925,0,0.2703,0.2719,0.2815,0.2834,0.2885,0.2959,0.3012,0.3165,0.3223,0.3418,0.3451,0.3626,0.3704,0.3839,0.3867,0.3917,0.3947,0.3671,0.3583,0.3861,0.3849,0.384,0.3831,0.3294,0.3289,0.3284,0.3281,0,0.2635,0.2669,0.2708,0.2753,0.28,0.2841,0.2933,0.2973,0.3146,0.3239,0.3365,0.3468,0.3637,0.3598,0.3698,0.3676,0.365,0.3587,0.3958,0.334,0.3275,0.326,0.327,0.3242,0.3246,0.3249,0.3251,0.3252,0.2573,0.2574,0.2622,0.2653,0.2698,0.2716,0.2717,0.2817,0.2898,0.3006,0.3175,0.3234,0.3338,0.3374,0.3308,0.3275,0.3517,0.3353,0.3362,0.3376,0.3307,0.3246,0.3194,0.3197,0.32,0.3203,0.3205,0,0.2483,0.2499,0.2518,0.2549,0.2543,0.261,0.2651,0.2629,0.2665,0.2798,0.2893,0.2754,0.2782,0.2867,0.2788,0.284,0.2762,0.2705,0.2564,0.2609,0.2647,0.2534,0.2219,0.2215,0.2211,0.2208,0,0,0.2433,0.2417,0.2428,0.2386,0.2404,0.2354,0.2346,0.2338,0.2392,0.2388,0.241,0.2641,0.2796,0.245,0.2452,0.231,0.2418,0.2225,0.3031,0.291,0.2942,0.3059,0.2943,0,0,0,0,0]},{"header":{"parameterUnit":"m.s-1","parameterCategory":2,"la1":30.2991,"la2":30.254,"lo1":-89.0895,"lo2":-89.0444,"dy":0.0017,"dx":0.0017,"nx":28,"ny":28,"refTime":"2024-12-12T09:00:00:Z","depth":"2","parameterNumber":3,"parameterNumberName":"V-component_of_CURRENTS"},"data":[0,0,0,0,0,0,0,0,0,0,0,0,0,0,0,0,0,0,0,0,0,0,0,0,0,0,0,0,0,0,0,0,0,0,0,0,0,0,0,0,0,0,0,0,0,0,0,0,0,0,0,0,0,0,0,0,0,0,-0.0066,-0.0067,0,-0.0153,-0.0154,-0.0155,-0.0226,-0.0227,-0.0227,-0.0228,-0.0343,-0.0345,-0.0348,0,0,0,0,0,0,0,0,0,0,0,0,0,-0.002,-0.002,-0.0066,-0.0067,-0.0068,-0.0153,-0.0154,-0.0156,-0.0226,-0.0227,-0.0227,-0.0228,-0.0342,-0.0345,-0.0348,0,0,0,0,0,0,0,0,0,0,0,0,0,-0.007,-0.002,-0.0066,-0.0111,-0.0115,-0.0152,-0.0154,-0.0156,-0.0226,-0.0227,-0.0227,-0.0228,-0.0341,-0.0345,-0.0349,-0.036,0,0,-0.0361,-0.0362,0,0,0,0,0,0,0,0,-0.0067,-0.0072,-0.0104,-0.0108,-0.0113,-0.0176,-0.018,-0.0224,-0.0226,-0.0188,-0.0228,-0.0228,-0.0287,-0.0295,-0.0315,-0.0365,-0.037,-0.0361,-0.0363,-0.0365,-0.0366,0,0,0,0,0,0,0,-0.0063,-0.0069,-0.0104,-0.0104,-0.011,-0.0146,-0.0154,-0.0189,-0.0236,-0.0191,-0.0196,-0.02,-0.029,-0.0311,-0.0318,-0.0372,-0.0361,-0.0364,-0.0367,-0.0368,-0.0443,-0.0443,0,0,0,0,0,0,-0.0042,-0.0065,-0.0101,-0.0106,-0.0087,-0.0146,-0.0155,-0.0158,-0.0235,-0.0246,-0.0199,-0.0202,-0.0303,-0.0313,-0.0322,-0.0338,-0.0365,-0.0369,-0.0371,-0.0443,-0.0443,-0.0443,0,0,0,0,0,0,-0.004,-0.0044,-0.0098,-0.0085,-0.0094,-0.0145,-0.0149,-0.0159,-0.0183,-0.024,-0.0253,-0.0211,-0.0304,-0.0317,-0.0355,-0.0343,-0.0371,-0.0374,-0.0444,-0.0443,-0.0443,-0.0371,0,0,0,0,0,0,-0.0039,-0.0043,-0.0042,-0.0083,-0.0094,-0.0111,-0.0149,-0.0161,-0.0183,-0.0188,-0.0255,-0.0266,-0.0306,-0.0348,-0.0359,-0.0349,-0.0377,-0.0444,-0.0444,-0.0443,-0.0374,-0.0368,-0.0363,0,0,0,0,0,-0.0037,-0.0027,-0.0041,-0.0046,-0.0089,-0.011,-0.0119,-0.0161,-0.0182,-0.0186,-0.0235,-0.0264,-0.0351,-0.0351,-0.0364,-0.0355,-0.0445,-0.0444,-0.0443,-0.0377,-0.0369,-0.0363,0,0,0,0,0,0,-0.0005,-0.0034,-0.0051,-0.0051,-0.0075,-0.0121,-0.0128,-0.0156,-0.0198,-0.0206,-0.0265,-0.0279,-0.0308,-0.034,-0.034,-0.0374,-0.04,-0.0402,-0.0346,-0.0339,-0.0334,-0.0312,-0.0381,0,0,0,0,0,0.0005,0.0002,-0.003,-0.003,-0.0039,-0.0083,-0.0098,-0.0124,-0.0163,-0.0183,-0.0228,-0.0274,-0.0313,-0.0333,-0.0372,-0.0391,-0.0421,-0.0391,-0.0386,-0.0381,-0.0371,-0.0414,-0.0412,-0.0439,-0.0439,-0.044,0,0,0.0018,0.0002,-0.0001,-0.0023,-0.0048,-0.0049,-0.0095,-0.011,-0.0115,-0.0188,-0.0211,-0.026,-0.0315,-0.0338,-0.0353,-0.0364,-0.0387,-0.038,-0.0375,-0.0368,-0.0413,-0.041,-0.0408,-0.0439,-0.0439,-0.0439,0,0,0.005,0.0029,0.0039,0.0024,-0.0001,-0.0025,-0.0025,-0.0066,-0.009,-0.0119,-0.017,-0.0209,-0.0268,-0.0302,-0.0328,-0.0315,-0.0359,-0.0326,-0.0279,-0.032,-0.0318,-0.0317,-0.034,-0.0342,-0.032,-0.0319,-0.0319,0,0.0066,0.0074,0.0039,0.0047,0.0045,-0.0007,0.0009,-0.0021,-0.0071,-0.0081,-0.0115,-0.0198,-0.025,-0.0274,-0.0274,-0.0302,-0.0328,-0.0298,-0.0313,-0.0312,-0.0312,-0.0336,-0.0339,-0.0316,-0.0316,-0.0317,-0.0317,0,0.0106,0.011,0.0117,0.0111,0.0105,0.0108,0.0075,0.0061,0.0024,-0.0009,-0.0047,-0.0123,-0.0169,-0.0192,-0.0234,-0.025,-0.027,-0.0303,-0.0326,-0.0305,-0.0332,-0.0336,-0.0311,-0.0312,-0.0313,-0.0314,0,0,0.0152,0.0146,0.0148,0.0163,0.0141,0.0146,0.0144,0.0131,0.0135,0.0069,0.0066,-0.0017,-0.0063,-0.0095,-0.0152,-0.0192,-0.022,-0.0241,-0.0245,-0.0257,-0.0299,-0.0315,-0.0321,-0.0258,-0.0259,-0.0259,-0.0314,0,0.0194,0.0228,0.0213,0.0251,0.0269,0.0236,0.0242,0.0223,0.0188,0.0169,0.0088,0.0052,-0.0024,-0.0048,-0.01,-0.0187,-0.0228,-0.02,-0.0324,-0.0327,-0.0339,-0.0325,-0.0297,-0.0344,-0.0318,-0.0319,-0.0319,0,0.0247,0.026,0.0304,0.033,0.0336,0.0347,0.0361,0.0359,0.0317,0.0287,0.0235,0.0167,0.0102,0.0026,-0.0105,-0.0085,-0.0184,-0.0258,-0.0263,-0.0304,-0.035,-0.0366,-0.0353,-0.0326,-0.0326,-0.0325,-0.0325,0,0.0308,0.0335,0.0375,0.038,0.039,0.0407,0.0411,0.0392,0.041,0.0359,0.0362,0.0261,0.0222,0.0085,-0.0074,-0.0092,-0.0218,-0.0265,-0.037,-0.0372,-0.0385,-0.0387,-0.0364,-0.0363,-0.0363,-0.0363,-0.0363,0,0.0367,0.0399,0.0404,0.0423,0.048,0.0465,0.0512,0.0503,0.05,0.0535,0.0424,0.0431,0.0232,0.0134,-0.003,-0.0198,-0.0188,-0.0354,-0.0388,-0.0358,-0.0357,-0.0375,-0.0375,-0.0365,-0.0365,-0.0364,-0.0364,0,0.0424,0.0424,0.0474,0.0494,0.0509,0.0547,0.0589,0.0625,0.0606,0.0652,0.0643,0.0564,0.0439,0.0241,0.0031,-0.0124,-0.0298,-0.0367,-0.0307,-0.0334,-0.0434,-0.043,-0.0483,-0.0484,-0.0485,-0.0486,-0.0487,0,0.0453,0.0483,0.0532,0.0571,0.0578,0.0626,0.067,0.0676,0.0726,0.0742,0.0784,0.0683,0.0634,0.033,0.0038,-0.0238,-0.0287,-0.0402,-0.0444,-0.0418,-0.0447,-0.0442,-0.0437,-0.0429,-0.0429,-0.0429,-0.0429,0,0.0509,0.0523,0.0562,0.064,0.0695,0.0763,0.0825,0.0886,0.0909,0.095,0.0997,0.0961,0.0685,0.0423,0.0041,-0.0157,-0.0358,-0.0413,-0.0403,-0.0402,-0.0372,-0.0398,-0.0395,-0.043,-0.043,-0.043,-0.043,-0.043,0.0551,0.0588,0.0641,0.0719,0.0789,0.0885,0.095,0.1033,0.1126,0.1197,0.1165,0.1119,0.0822,0.0345,0.0008,-0.0359,-0.0351,-0.0483,-0.0481,-0.048,-0.0462,-0.0436,-0.0501,-0.0502,-0.0502,-0.0502,-0.0502,0,0.0601,0.0643,0.0719,0.0808,0.0892,0.0922,0.105,0.1117,0.1237,0.1303,0.1333,0.1058,0.0768,0.0413,-0.0119,-0.0434,-0.0468,-0.0541,-0.0505,-0.0502,-0.0499,-0.0483,-0.0528,-0.0529,-0.053,-0.053,0,0,0.0627,0.0699,0.0733,0.0871,0.0943,0.1057,0.1132,0.124,0.1312,0.1368,0.1351,0.1309,0.0887,0.0508,0.0081,-0.0223,-0.03,-0.0296,-0.0242,-0.0147,-0.0141,-0.0433,-0.04,0,0,0,0,0]}],[{"header":{"parameterUnit":"m.s-1","parameterCategory":2,"la1":30.2991,"la2":30.254,"lo1":-89.0895,"lo2":-89.0444,"dy":0.0017,"dx":0.0017,"nx":28,"ny":28,"refTime":"2024-12-12T09:00:00:Z","depth":"4","parameterNumber":2,"parameterNumberName":"U-component_of_CURRENTS"},"data":[0,0,0,0,0,0,0,0,0,0,0,0,0,0,0,0,0,0,0,0,0,0,0,0,0,0,0,0,0,0,0,0,0,0,0,0,0,0,0,0,0,0,0,0,0,0,0,0,0,0,0,0,0,0,0,0,0,0,0.1818,0.1818,0,0.1875,0.1875,0.1876,0.1938,0.1939,0.194,0.1941,0.2021,0.2022,0.2023,0,0,0,0,0,0,0,0,0,0,0,0,0,0.1735,0.1736,0.1817,0.1818,0.1819,0.1875,0.1875,0.1876,0.1938,0.1939,0.194,0.1942,0.2021,0.2022,0.2023,0,0,0,0,0,0,0,0,0,0,0,0,0,0.1778,0.1736,0.1817,0.1858,0.1862,0.1874,0.1875,0.1876,0.1938,0.1939,0.1941,0.1942,0.202,0.2022,0.2023,0.2003,0,0,0.2029,0.203,0,0,0,0,0,0,0,0,0.1775,0.178,0.1851,0.1855,0.186,0.1902,0.1875,0.192,0.1937,0.1907,0.1941,0.1943,0.1983,0.1988,0.1993,0.2007,0.201,0.2029,0.203,0.2031,0.2031,0,0,0,0,0,0,0,0.1772,0.1778,0.1839,0.1852,0.1857,0.1864,0.1872,0.1884,0.1935,0.191,0.1915,0.1923,0.1986,0.1991,0.1995,0.2011,0.2029,0.203,0.2031,0.2032,0.2145,0.2147,0,0,0,0,0,0,0.1768,0.1775,0.1837,0.184,0.1822,0.1864,0.1873,0.1886,0.1935,0.1944,0.1922,0.1926,0.1987,0.1993,0.1998,0.2096,0.2031,0.2032,0.2033,0.2143,0.2145,0.2147,0,0,0,0,0,0,0.1766,0.1773,0.1835,0.181,0.1819,0.1865,0.1878,0.1886,0.1933,0.1944,0.1953,0.1966,0.1989,0.1996,0.2052,0.2095,0.2033,0.2035,0.214,0.2143,0.2146,0.2215,0,0,0,0,0,0,0.1763,0.1772,0.1797,0.181,0.182,0.187,0.1877,0.1886,0.1934,0.1941,0.1983,0.199,0.199,0.205,0.2054,0.2097,0.2036,0.2138,0.2142,0.2145,0.2211,0.222,0.2229,0,0,0,0,0,0.176,0.1781,0.1798,0.1806,0.1847,0.1872,0.1878,0.1914,0.1935,0.1961,0.1997,0.1991,0.2076,0.2053,0.2057,0.2101,0.2136,0.2141,0.2145,0.2207,0.2218,0.2228,0,0,0,0,0,0,0.1757,0.1789,0.1809,0.184,0.1869,0.1884,0.1914,0.1935,0.1981,0.2002,0.2012,0.2021,0.2088,0.2084,0.2058,0.2145,0.2107,0.2112,0.2152,0.2163,0.2172,0.217,0.2037,0,0,0,0,0,0.1767,0.1797,0.1822,0.1853,0.187,0.19,0.1922,0.1946,0.1979,0.2003,0.2032,0.2066,0.21,0.2125,0.2149,0.2192,0.2196,0.2225,0.2234,0.2242,0.2244,0.2286,0.2299,0.2162,0.2162,0.2161,0,0,0.1774,0.1797,0.1816,0.1856,0.1883,0.1911,0.1919,0.1963,0.1999,0.2002,0.2073,0.2101,0.212,0.2175,0.2204,0.2183,0.2287,0.2247,0.2254,0.2252,0.2292,0.2305,0.2317,0.2165,0.2164,0.2164,0,0,0.1788,0.1826,0.1853,0.1881,0.193,0.1946,0.1968,0.2008,0.2046,0.2104,0.2123,0.2179,0.2226,0.225,0.2266,0.2337,0.2334,0.2353,0.2397,0.2438,0.245,0.246,0.2497,0.2509,0.2356,0.2356,0.2357,0,0.1799,0.1836,0.1866,0.1897,0.1927,0.1966,0.1999,0.2035,0.2092,0.2128,0.2142,0.2239,0.2259,0.2323,0.2355,0.2358,0.238,0.2353,0.245,0.2459,0.2468,0.2504,0.2517,0.236,0.236,0.2359,0.2359,0,0.1818,0.1867,0.1887,0.194,0.1974,0.2014,0.2058,0.2109,0.216,0.2195,0.2288,0.2322,0.2379,0.24,0.2402,0.2482,0.2478,0.2456,0.2419,0.2486,0.2519,0.2532,0.2366,0.2364,0.2363,0.2362,0,0,0.1791,0.1883,0.1895,0.1934,0.2005,0.2028,0.2098,0.2164,0.222,0.2289,0.2361,0.2434,0.2466,0.2486,0.2504,0.2543,0.2633,0.2536,0.2536,0.2568,0.2735,0.2586,0.2584,0.2635,0.2637,0.2639,0.2737,0,0.1804,0.1867,0.1913,0.1983,0.2019,0.2082,0.2143,0.2211,0.2277,0.2355,0.2415,0.2494,0.2494,0.2541,0.2582,0.2625,0.2668,0.2609,0.2669,0.2671,0.2525,0.2594,0.2646,0.2746,0.2749,0.2751,0.2753,0,0.1801,0.1849,0.1918,0.2016,0.204,0.2093,0.2195,0.2256,0.2365,0.2421,0.2505,0.2553,0.2645,0.2625,0.2734,0.2702,0.2728,0.2749,0.2753,0.2593,0.2543,0.2663,0.2775,0.2773,0.2771,0.277,0.2768,0,0.1749,0.1851,0.191,0.1942,0.2052,0.2111,0.218,0.2288,0.2348,0.2477,0.2535,0.2636,0.2709,0.2759,0.2818,0.2791,0.292,0.2879,0.2768,0.2758,0.2832,0.282,0.2945,0.2945,0.2945,0.2945,0.2945,0,0.1722,0.1775,0.1902,0.1929,0.2011,0.2103,0.2198,0.2279,0.2399,0.2472,0.2576,0.2639,0.275,0.283,0.2855,0.2856,0.2955,0.2786,0.2774,0.2861,0.2851,0.2841,0.2828,0.2949,0.2948,0.2947,0.2946,0,0.165,0.1734,0.1808,0.1941,0.1988,0.2051,0.2196,0.2254,0.239,0.2487,0.2536,0.2678,0.2781,0.2868,0.2965,0.2894,0.2914,0.2887,0.2999,0.299,0.2714,0.2704,0.2758,0.2754,0.275,0.2747,0.2744,0,0.1616,0.1651,0.1796,0.1842,0.1912,0.2018,0.2084,0.223,0.2292,0.2487,0.252,0.2676,0.2753,0.2767,0.2869,0.291,0.2877,0.2864,0.2757,0.2713,0.2697,0.2692,0.2687,0.2738,0.2737,0.2736,0.2735,0,0.155,0.162,0.1678,0.1772,0.1853,0.1923,0.2039,0.2062,0.2232,0.2373,0.2441,0.2495,0.2606,0.267,0.2731,0.2749,0.2854,0.2823,0.283,0.2729,0.2689,0.2676,0.2675,0.2722,0.2724,0.2725,0.2726,0,0.1506,0.1529,0.1617,0.1685,0.1778,0.1812,0.1876,0.1954,0.2028,0.224,0.2263,0.2428,0.2579,0.259,0.2646,0.2657,0.2607,0.2507,0.2529,0.2545,0.2429,0.2344,0.227,0,0,0,0,0,0.1452,0.1465,0.1522,0.1582,0.1668,0.1721,0.1841,0.1908,0.2067,0.206,0.2153,0.2243,0.2319,0.2407,0.2376,0.2564,0.2624,0.2517,0.2521,0.265,0.2665,0.2549,0,0,0,0,0,0,0.1415,0.1465,0.1481,0.1486,0.1508,0.1581,0.1648,0.1752,0.1756,0.1928,0.1979,0.2117,0.2225,0.2318,0.2336,0.2365,0.2324,0.2628,0.2623,0.2641,0.2655,0.2667,0.2553,0,0,0,0,0]},{"header":{"parameterUnit":"m.s-1","parameterCategory":2,"la1":30.2991,"la2":30.254,"lo1":-89.0895,"lo2":-89.0444,"dy":0.0017,"dx":0.0017,"nx":28,"ny":28,"refTime":"2024-12-12T09:00:00:Z","depth":"4","parameterNumber":3,"parameterNumberName":"V-component_of_CURRENTS"},"data":[0,0,0,0,0,0,0,0,0,0,0,0,0,0,0,0,0,0,0,0,0,0,0,0,0,0,0,0,0,0,0,0,0,0,0,0,0,0,0,0,0,0,0,0,0,0,0,0,0,0,0,0,0,0,0,0,0,0,0.009,0.009,0,0.0049,0.0048,0.0048,0.0011,0.0011,0.0011,0.0011,-0.0042,-0.0043,-0.0045,0,0,0,0,0,0,0,0,0,0,0,0,0,0.0111,0.0111,0.009,0.009,0.0089,0.0049,0.0048,0.0048,0.0011,0.0011,0.0011,0.001,-0.0042,-0.0043,-0.0045,0,0,0,0,0,0,0,0,0,0,0,0,0,0.0088,0.0111,0.009,0.0067,0.0065,0.0049,0.0048,0.0048,0.0012,0.0011,0.0011,0.001,-0.0042,-0.0043,-0.0045,-0.0046,0,0,-0.005,-0.0051,0,0,0,0,0,0,0,0,0.0089,0.0087,0.0071,0.0069,0.0066,0.0036,0.0036,0.0016,0.0012,0.0031,0.0011,0.001,-0.0016,-0.002,-0.0028,-0.0048,-0.0051,-0.005,-0.0051,-0.0052,-0.0052,0,0,0,0,0,0,0,0.0091,0.0089,0.0073,0.0071,0.0068,0.005,0.0046,0.0032,0.0009,0.0029,0.0026,0.0024,-0.0018,-0.0026,-0.003,-0.0051,-0.005,-0.0052,-0.0053,-0.0053,-0.0088,-0.0088,0,0,0,0,0,0,0.0101,0.009,0.0074,0.0071,0.0078,0.005,0.0046,0.0045,0.0009,0.0004,0.0024,0.0022,-0.0023,-0.0028,-0.0032,-0.0032,-0.0052,-0.0053,-0.0054,-0.0088,-0.0088,-0.0088,0,0,0,0,0,0,0.0101,0.01,0.0076,0.0081,0.0077,0.0051,0.005,0.0045,0.0036,0.0006,0.0,0.0022,-0.0024,-0.0029,-0.0042,-0.0034,-0.0054,-0.0056,-0.0088,-0.0088,-0.0088,-0.0034,0,0,0,0,0,0,0.0102,0.01,0.0104,0.0082,0.0077,0.0073,0.005,0.0044,0.0036,0.0033,0.0002,-0.0003,-0.0025,-0.0039,-0.0043,-0.0037,-0.0057,-0.0088,-0.0088,-0.0088,-0.0035,-0.0032,-0.0028,0,0,0,0,0,0.0103,0.0114,0.0104,0.0102,0.0082,0.0073,0.0069,0.0048,0.0037,0.0038,0.0015,-0.0002,-0.0042,-0.004,-0.0045,-0.0039,-0.0088,-0.0088,-0.0088,-0.0037,-0.0032,-0.0028,0,0,0,0,0,0,0.0126,0.011,0.0099,0.0105,0.0092,0.0068,0.0069,0.0053,0.0036,0.0033,0.0002,-0.0005,-0.0014,-0.0034,-0.0032,-0.005,-0.0069,-0.007,-0.0029,-0.0025,-0.0021,-0.0007,-0.0058,0,0,0,0,0,0.0133,0.0136,0.0117,0.0121,0.0117,0.0093,0.0087,0.0073,0.0055,0.0047,0.0025,0.0,-0.0017,-0.0026,-0.0045,-0.0051,-0.0083,-0.0053,-0.0049,-0.0046,-0.004,-0.0083,-0.0082,-0.0087,-0.0087,-0.0087,0,0,0.0144,0.0135,0.0137,0.0126,0.0114,0.0118,0.0088,0.0085,0.0087,0.0045,0.0041,0.0014,-0.0016,-0.0024,-0.0031,-0.004,-0.0063,-0.0046,-0.0043,-0.0038,-0.0083,-0.0082,-0.0082,-0.0087,-0.0087,-0.0087,0,0,0.0169,0.0159,0.017,0.0163,0.015,0.0138,0.014,0.0118,0.0107,0.0099,0.0069,0.0048,0.0022,0.0001,-0.0012,-0.0001,-0.0042,-0.0009,0.0021,-0.0021,-0.002,-0.0021,-0.0064,-0.0069,-0.0007,-0.0007,-0.0007,0,0.0182,0.0192,0.0172,0.018,0.0182,0.0152,0.0167,0.0153,0.0129,0.0124,0.0106,0.0062,0.0035,0.0023,0.0025,0.0009,-0.0024,0.001,-0.0015,-0.0016,-0.0017,-0.0062,-0.0067,-0.0005,-0.0005,-0.0005,-0.0005,0,0.0212,0.022,0.0228,0.0229,0.023,0.0237,0.022,0.0215,0.0197,0.0178,0.0159,0.0117,0.0091,0.0076,0.0055,0.0037,0.0013,-0.0004,-0.0023,-0.0013,-0.0061,-0.0068,-0.0001,-0.0002,-0.0003,-0.0003,0,0,0.0243,0.0249,0.0252,0.0264,0.0258,0.0264,0.0271,0.0268,0.0274,0.0236,0.0236,0.0193,0.0161,0.0144,0.0108,0.007,0.003,0.0034,0.003,-0.0003,-0.0067,-0.0073,-0.0082,0.0006,0.0005,0.0005,-0.0098,0,0.0274,0.0304,0.0299,0.0333,0.0348,0.0332,0.0344,0.0335,0.0316,0.0306,0.0253,0.0237,0.019,0.0178,0.0132,0.006,0.0014,0.0059,-0.0077,-0.008,-0.0082,-0.0089,0.0002,-0.0104,-0.0105,-0.0107,-0.0107,0,0.0306,0.0323,0.0361,0.0388,0.0395,0.041,0.0427,0.0434,0.0409,0.0389,0.0354,0.0312,0.0259,0.0215,0.0088,0.0118,0.0032,-0.0033,-0.0039,-0.0066,-0.0099,-0.0117,-0.0121,-0.012,-0.0119,-0.0118,-0.0117,0,0.0339,0.0371,0.0406,0.0413,0.0433,0.0452,0.0466,0.0459,0.0475,0.0443,0.0441,0.0364,0.033,0.0217,0.0085,0.0084,-0.0062,-0.0083,-0.0173,-0.0175,-0.0163,-0.0162,-0.0179,-0.0179,-0.0179,-0.0178,-0.0178,0,0.0371,0.04,0.0424,0.0442,0.0492,0.0493,0.0536,0.0535,0.0538,0.0559,0.0489,0.0478,0.0328,0.0232,0.0101,-0.0054,-0.0056,-0.0169,-0.0201,-0.0139,-0.0134,-0.0168,-0.0166,-0.0182,-0.0181,-0.0181,-0.018,0,0.0393,0.0408,0.0451,0.0487,0.0507,0.0542,0.0593,0.062,0.0614,0.0639,0.0635,0.0558,0.043,0.0273,0.0085,-0.0025,-0.0177,-0.0235,-0.0155,-0.0181,-0.0269,-0.0263,-0.0345,-0.0346,-0.0347,-0.0348,-0.0349,0,0.0403,0.0427,0.0487,0.0522,0.054,0.0592,0.0632,0.0654,0.0684,0.0686,0.0701,0.0602,0.0526,0.0264,0.0086,-0.0166,-0.0204,-0.029,-0.0283,-0.0263,-0.0286,-0.0278,-0.0271,-0.035,-0.035,-0.0351,-0.0351,0,0.0421,0.0443,0.048,0.0553,0.0605,0.0665,0.0722,0.0754,0.0779,0.078,0.0754,0.0628,0.0481,0.0274,0.0078,-0.0103,-0.0236,-0.03,-0.0299,-0.0294,-0.0269,-0.029,-0.0281,-0.0354,-0.0353,-0.0353,-0.0353,0,0.0435,0.0461,0.0512,0.0577,0.0648,0.0713,0.0745,0.0781,0.0813,0.0819,0.0807,0.0655,0.0568,0.0305,0.0126,-0.0053,-0.0104,-0.0169,-0.0176,-0.0175,-0.0096,-0.0039,-0.0079,0,0,0,0,0,0.0443,0.0473,0.0533,0.0602,0.0674,0.0717,0.0795,0.0819,0.0849,0.0843,0.083,0.0697,0.0442,0.0334,0.0155,0.0088,-0.0149,-0.0131,-0.0231,-0.0371,-0.0367,-0.0304,0,0,0,0,0,0,0.0446,0.0499,0.0527,0.0611,0.0661,0.0742,0.0793,0.082,0.0816,0.0824,0.0697,0.0639,0.0394,0.0545,0.0148,0.0094,0.0002,-0.0246,-0.025,-0.0373,-0.0369,-0.0367,-0.0301,0,0,0,0,0]}]]